This is the latest recevied weather packets stored in our database for station/object KK6MIG-13. If no packets are shown the sender has not sent any weather packets the latest 1 day(s).
| Time | Temp. | Humidity | Pressure | Rain* | Wind** | Luminosity | Snow |
|---|---|---|---|---|---|---|---|
| 1778051623 | 13.33° C | 1% | 1017.3 hPa | 0 mm | 2.24 m/s, 284° | 0 W/m² | - |
| 1778051563 | 13.33° C | 1% | 1017.3 hPa | 0 mm | 2.24 m/s, 296° | 0 W/m² | - |
| 1778051497 | 13.33° C | 1% | 1017.3 hPa | 0 mm | 2.24 m/s, 277° | 0 W/m² | - |
| 1778051437 | 13.33° C | 1% | 1017.3 hPa | 0 mm | 1.79 m/s, 288° | 0 W/m² | - |
| 1778051377 | 13.33° C | 1% | 1017.3 hPa | 0 mm | 1.79 m/s, 265° | 0 W/m² | - |
| 1778051318 | 13.33° C | 1% | 1017.3 hPa | 0 mm | 1.79 m/s, 284° | 0 W/m² | - |
| 1778051256 | 13.33° C | 1% | 1017.3 hPa | 0 mm | 1.79 m/s, 265° | 0 W/m² | - |
| 1778051191 | 13.33° C | 1% | 1017.3 hPa | 0 mm | 2.24 m/s, 294° | 0 W/m² | - |
| 1778051132 | 13.33° C | 1% | 1017.3 hPa | 0 mm | 2.24 m/s, 305° | 0 W/m² | - |
| 1778051072 | 13.33° C | 1% | 1017.3 hPa | 0 mm | 2.24 m/s, 310° | 0 W/m² | - |
| 1778051011 | 13.33° C | 1% | 1017.2 hPa | 0 mm | 2.24 m/s, 289° | 0 W/m² | - |
| 1778050950 | 13.33° C | 1% | 1017.2 hPa | 0 mm | 2.68 m/s, 271° | 0 W/m² | - |
| 1778050885 | 13.33° C | 1% | 1017.2 hPa | 0 mm | 2.68 m/s, 285° | 0 W/m² | - |
| 1778050825 | 13.33° C | 1% | 1017.2 hPa | 0 mm | 2.68 m/s, 267° | 0 W/m² | - |
| 1778050762 | 13.33° C | 1% | 1017.2 hPa | 0 mm | 2.68 m/s, 273° | 0 W/m² | - |
| 1778050702 | 13.33° C | 1% | 1017.2 hPa | 0 mm | 3.13 m/s, 274° | 0 W/m² | - |
| 1778050642 | 13.33° C | 1% | 1017.3 hPa | 0 mm | 3.13 m/s, 292° | 0 W/m² | - |
| 1778050579 | 13.33° C | 1% | 1017.2 hPa | 0 mm | 2.68 m/s, 291° | 0 W/m² | - |
| 1778050516 | 13.33° C | 1% | 1017.2 hPa | 0 mm | 2.68 m/s, 278° | 0 W/m² | - |
| 1778050457 | 13.33° C | 1% | 1017.2 hPa | 0 mm | 2.68 m/s, 282° | 0 W/m² | - |
| 1778050397 | 13.33° C | 1% | 1017.2 hPa | 0 mm | 2.68 m/s, 279° | 0 W/m² | - |
| 1778050334 | 13.33° C | 1% | 1017.2 hPa | 0 mm | 2.68 m/s, 293° | 0 W/m² | - |
| 1778050277 | 13.33° C | 1% | 1017.2 hPa | 0 mm | 2.24 m/s, 277° | 0 W/m² | - |
| 1778050273 | 13.33° C | 1% | 1017.2 hPa | 0 mm | 2.68 m/s, 263° | 0 W/m² | - |
| 1778050157 | 13.33° C | 1% | 1017.1 hPa | 0 mm | 2.24 m/s, 284° | 0 W/m² | - |
* Rain latest hour (hover to see other rain measurements)
** Current wind speed in m/s (hover to see current wind gust speed)